| time (UTC) | temp C | wind direction | speed KPH | gust KPH | rain 1hr cm | rain 24hr cm | rain mn cm | humidity % | barometer mb |
| 20260504001550 | 12 | 346 | 0.0 | 0.0 | 0.00 | 0.00 | 0.00 | 51 | 1013.4 |
| 20260504001045 | 12 | 299 | 0.0 | 1.6 | 0.00 | 0.00 | 0.00 | 47 | 1013.6 |
| 20260504000543 | 12 | 263 | 0.0 | 1.6 | 0.00 | 0.00 | 0.00 | 45 | 1013.3 |
| 20260504000040 | 13 | 306 | 1.6 | 1.6 | 0.00 | 0.00 | 0.00 | 49 | 1013.3 |
| 20260503235539 | 13 | 152 | 3.2 | 3.2 | 0.00 | 0.00 | 0.00 | 45 | 1013.5 |
| 20260503235035 | 13 | 301 | 1.6 | 3.2 | 0.00 | 0.00 | 0.00 | 44 | 1013.6 |
| 20260503234532 | 13 | 317 | 1.6 | 4.8 | 0.00 | 0.00 | 0.00 | 45 | 1013.6 |
| 20260503234031 | 13 | 324 | 1.6 | 1.6 | 0.00 | 0.00 | 0.00 | 47 | 1013.7 |
| 20260503233527 | 13 | 275 | 1.6 | 1.6 | 0.00 | 0.00 | 0.00 | 48 | 1013.5 |
| 20260503233023 | 13 | 206 | 8.0 | 9.7 | 0.00 | 0.00 | 0.00 | 43 | 1013.6 |
| 20260503232520 | 13 | 337 | 1.6 | 4.8 | 0.00 | 0.00 | 0.00 | 45 | 1013.6 |
| 20260503232018 | 13 | 180 | 4.8 | 4.8 | 0.00 | 0.00 | 0.00 | 42 | 1013.7 |
| 20260503231515 | 13 | 191 | 8.0 | 9.7 | 0.00 | 0.00 | 0.00 | 43 | 1013.8 |
| 20260503231012 | 13 | 321 | 3.2 | 3.2 | 0.00 | 0.00 | 0.00 | 44 | 1013.8 |
| 20260503230508 | 13 | 240 | 0.0 | 1.6 | 0.00 | 0.00 | 0.00 | 42 | 1013.8 |
| 20260503230006 | 14 | 274 | 1.6 | 3.2 | 0.00 | 0.00 | 0.00 | 43 | 1013.8 |
| 20260503225503 | 14 | 312 | 3.2 | 3.2 | 0.00 | 0.00 | 0.00 | 44 | 1013.9 |
| 20260503224958 | 14 | 219 | 6.4 | 9.7 | 0.00 | 0.00 | 0.00 | 41 | 1013.9 |
| 20260503224455 | 14 | 251 | 1.6 | 3.2 | 0.00 | 0.00 | 0.00 | 40 | 1013.8 |
| 20260503223953 | 14 | 214 | 0.0 | 0.0 | 0.00 | 0.00 | 0.00 | 41 | 1013.8 |
| 20260503223451 | 15 | 205 | 8.0 | 11.3 | 0.00 | 0.00 | 0.00 | 40 | 1013.9 |
| 20260503222946 | 15 | 275 | 1.6 | 1.6 | 0.00 | 0.00 | 0.00 | 41 | 1014.0 |
| 20260503222445 | 15 | 225 | 1.6 | 3.2 | 0.00 | 0.00 | 0.00 | 42 | 1014.0 |
| 20260503221943 | 15 | 343 | 3.2 | 4.8 | 0.00 | 0.00 | 0.00 | 41 | 1014.0 |
| 20260503221441 | 15 | 359 | 3.2 | 4.8 | 0.00 | 0.00 | 0.00 | 42 | 1014.1 |
| 20260503220937 | 15 | 282 | 1.6 | 3.2 | 0.00 | 0.00 | 0.00 | 41 | 1014.2 |
| 20260503220433 | 15 | 263 | 4.8 | 4.8 | 0.00 | 0.00 | 0.00 | 41 | 1014.2 |
| 20260503215931 | 15 | 278 | 1.6 | 1.6 | 0.00 | 0.00 | 0.00 | 43 | 1014.0 |
| 20260503215427 | 15 | 292 | 1.6 | 1.6 | 0.00 | 0.00 | 0.00 | 43 | 1014.3 |
| 20260503214925 | 15 | 187 | 6.4 | 9.7 | 0.00 | 0.00 | 0.00 | 42 | 1014.0 |
| 20260503214423 | 14 | 249 | 0.0 | 1.6 | 0.00 | 0.00 | 0.00 | 44 | 1014.2 |
| 20260503213920 | 15 | 251 | 3.2 | 6.4 | 0.00 | 0.00 | 0.00 | 41 | 1014.1 |
| 20260503213418 | 14 | 276 | 3.2 | 4.8 | 0.00 | 0.00 | 0.00 | 39 | 1014.2 |
| 20260503212914 | 14 | 193 | 3.2 | 4.8 | 0.00 | 0.00 | 0.00 | 40 | 1014.1 |
| 20260503212412 | 15 | 210 | 6.4 | 9.7 | 0.00 | 0.00 | 0.00 | 40 | 1014.1 |
| 20260503211909 | 15 | 306 | 0.0 | 0.0 | 0.00 | 0.00 | 0.00 | 40 | 1014.0 |
| 20260503211405 | 15 | 233 | 6.4 | 11.3 | 0.00 | 0.00 | 0.00 | 40 | 1014.2 |
| 20260503210901 | 15 | 270 | 3.2 | 4.8 | 0.00 | 0.00 | 0.00 | 41 | 1014.3 |
| 20260503210359 | 15 | 222 | 3.2 | 4.8 | 0.00 | 0.00 | 0.00 | 40 | 1014.4 |
| 20260503205853 | 15 | 263 | 3.2 | 3.2 | 0.00 | 0.00 | 0.00 | 40 | 1014.1 |
| 20260503205350 | 15 | 246 | 1.6 | 3.2 | 0.00 | 0.00 | 0.00 | 39 | 1014.4 |
| 20260503204846 | 15 | 247 | 3.2 | 4.8 | 0.00 | 0.00 | 0.00 | 40 | 1014.3 |
| 20260503204344 | 15 | 131 | 3.2 | 6.4 | 0.00 | 0.00 | 0.00 | 38 | 1014.3 |
| 20260503203841 | 16 | 261 | 6.4 | 9.7 | 0.00 | 0.00 | 0.00 | 39 | 1014.4 |
| 20260503203338 | 16 | 212 | 3.2 | 3.2 | 0.00 | 0.00 | 0.00 | 39 | 1014.2 |
| 20260503202835 | 15 | 216 | 9.7 | 14.5 | 0.00 | 0.00 | 0.00 | 41 | 1014.5 |
| 20260503202333 | 16 | 284 | 3.2 | 3.2 | 0.00 | 0.00 | 0.00 | 37 | 1014.4 |
| 20260503201831 | 16 | 280 | 4.8 | 4.8 | 0.00 | 0.00 | 0.00 | 37 | 1014.4 |
| 20260503201328 | 15 | 23 | 4.8 | 6.4 | 0.00 | 0.00 | 0.00 | 40 | 1014.4 |
| 20260503200825 | 15 | 222 | 6.4 | 9.7 | 0.00 | 0.00 | 0.00 | 39 | 1014.6 |
| 20260503200321 | 15 | 224 | 4.8 | 6.4 | 0.00 | 0.00 | 0.00 | 38 | 1014.5 |
| 20260503195819 | 14 | 214 | 3.2 | 4.8 | 0.00 | 0.00 | 0.00 | 39 | 1014.9 |
| 20260503195315 | 15 | 270 | 8.0 | 9.7 | 0.00 | 0.00 | 0.00 | 36 | 1014.8 |
| 20260503194813 | 15 | 228 | 4.8 | 6.4 | 0.00 | 0.00 | 0.00 | 37 | 1014.9 |
| 20260503194308 | 15 | 243 | 4.8 | 6.4 | 0.00 | 0.00 | 0.00 | 38 | 1015.0 |
| 20260503193804 | 15 | 216 | 4.8 | 6.4 | 0.00 | 0.00 | 0.00 | 39 | 1014.9 |
| 20260503193300 | 15 | 269 | 3.2 | 4.8 | 0.00 | 0.00 | 0.00 | 43 | 1015.1 |
| 20260503192757 | 16 | 246 | 1.6 | 3.2 | 0.00 | 0.00 | 0.00 | 37 | 1015.3 |
| 20260503192252 | 15 | 220 | 3.2 | 4.8 | 0.00 | 0.00 | 0.00 | 39 | 1015.4 |
| 20260503191749 | 15 | 314 | 3.2 | 4.8 | 0.00 | 0.00 | 0.00 | 40 | 1015.3 |
| 20260503191246 | 14 | 138 | 4.8 | 6.4 | 0.00 | 0.00 | 0.00 | 41 | 1015.4 |
| 20260503190743 | 16 | 251 | 1.6 | 3.2 | 0.00 | 0.00 | 0.00 | 37 | 1015.6 |
| 20260503190239 | 15 | 237 | 3.2 | 3.2 | 0.00 | 0.00 | 0.00 | 38 | 1015.8 |
| 20260503185731 | 15 | 260 | 6.4 | 9.7 | 0.00 | 0.00 | 0.00 | 39 | 1015.6 |
| 20260503185227 | 15 | 220 | 6.4 | 11.3 | 0.00 | 0.00 | 0.00 | 39 | 1015.8 |
| 20260503184721 | 15 | 288 | 3.2 | 3.2 | 0.00 | 0.00 | 0.00 | 38 | 1015.7 |
| 20260503184218 | 15 | 213 | 4.8 | 9.7 | 0.00 | 0.00 | 0.00 | 38 | 1015.9 |
| 20260503183714 | 15 | 203 | 4.8 | 4.8 | 0.00 | 0.00 | 0.00 | 42 | 1015.7 |
| 20260503183212 | 15 | 229 | 3.2 | 4.8 | 0.00 | 0.00 | 0.00 | 40 | 1015.8 |
| 20260503182710 | 15 | 223 | 4.8 | 4.8 | 0.00 | 0.00 | 0.00 | 39 | 1016.4 |
| 20260503182208 | 15 | 305 | 3.2 | 4.8 | 0.00 | 0.00 | 0.00 | 36 | 1016.1 |
| 20260503181704 | 15 | 199 | 3.2 | 3.2 | 0.00 | 0.00 | 0.00 | 42 | 1016.4 |
| 20260503181201 | 15 | 287 | 8.0 | 14.5 | 0.00 | 0.00 | 0.00 | 39 | 1016.0 |
| 20260503180658 | 15 | 218 | 3.2 | 4.8 | 0.00 | 0.00 | 0.00 | 39 | 1016.1 |
| 20260503180157 | 14 | 269 | 4.8 | 9.7 | 0.00 | 0.00 | 0.00 | 42 | 1016.4 |
| 20260503175653 | 15 | 286 | 4.8 | 6.4 | 0.00 | 0.00 | 0.00 | 38 | 1016.3 |
| 20260503175150 | 14 | 305 | 3.2 | 3.2 | 0.00 | 0.00 | 0.00 | 42 | 1016.5 |
| 20260503174646 | 14 | 182 | 8.0 | 11.3 | 0.00 | 0.00 | 0.00 | 42 | 1016.4 |
| 20260503174144 | 15 | 259 | 6.4 | 6.4 | 0.00 | 0.00 | 0.00 | 42 | 1016.5 |
| 20260503173639 | 15 | 244 | 4.8 | 6.4 | 0.00 | 0.00 | 0.00 | 42 | 1016.6 |
| 20260503173136 | 14 | 269 | 3.2 | 4.8 | 0.00 | 0.00 | 0.00 | 41 | 1016.4 |
| 20260503172633 | 15 | 278 | 6.4 | 9.7 | 0.00 | 0.00 | 0.00 | 40 | 1016.7 |
| 20260503172130 | 14 | 293 | 4.8 | 6.4 | 0.00 | 0.00 | 0.00 | 43 | 1016.8 |
| 20260503171626 | 14 | 231 | 9.7 | 12.9 | 0.00 | 0.00 | 0.00 | 43 | 1016.7 |
| 20260503171124 | 13 | 270 | 4.8 | 4.8 | 0.00 | 0.00 | 0.00 | 43 | 1016.8 |
| 20260503170621 | 14 | 185 | 6.4 | 6.4 | 0.00 | 0.00 | 0.00 | 44 | 1016.9 |
| 20260503170117 | 14 | 270 | 6.4 | 6.4 | 0.00 | 0.00 | 0.00 | 45 | 1016.9 |
| 20260503151012 | 12 | 292 | 8.0 | 14.5 | 0.00 | 0.00 | 0.00 | 42 | 1017.6 |
| 20260503150508 | 12 | 303 | 1.6 | 3.2 | 0.00 | 0.00 | 0.00 | 46 | 1017.8 |
| 20260503131355 | 7 | 263 | 4.8 | 6.4 | 0.00 | 0.00 | 0.00 | 66 | 1018.4 |
| 20260503130853 | 7 | 250 | 1.6 | 1.6 | 0.00 | 0.00 | 0.00 | 66 | 1018.1 |
| 20260503130350 | 7 | 250 | 0.0 | 0.0 | 0.00 | 0.00 | 0.00 | 65 | 1018.3 |
| 20260503110744 | 0 | 300 | 0.0 | 0.0 | 0.00 | 0.00 | 0.00 | 98 | 1017.8 |
| 20260503110241 | 0 | 300 | 0.0 | 0.0 | 0.00 | 0.00 | 0.00 | 98 | 1017.8 |
| 20260503100207 | 0 | 299 | 0.0 | 0.0 | 0.00 | 0.00 | 0.00 | 98 | 1017.4 |
| 20260503090131 | 0 | 299 | 0.0 | 0.0 | 0.00 | 0.00 | 0.00 | 98 | 1017.3 |
| 20260503081608 | 0 | 300 | 0.0 | 0.0 | 0.00 | 0.00 | 0.00 | 98 | 1017.5 |
| 20260503081105 | 0 | 300 | 0.0 | 0.0 | 0.00 | 0.00 | 0.00 | 98 | 1017.6 |
| 20260503080600 | 0 | 300 | 0.0 | 0.0 | 0.00 | 0.00 | 0.00 | 98 | 1017.6 |
| 20260503072534 | 0 | 300 | 0.0 | 0.0 | 0.00 | 0.00 | 0.00 | 97 | 1017.7 |
| 20260503072032 | 1 | 300 | 0.0 | 0.0 | 0.00 | 0.00 | 0.00 | 97 | 1017.5 |
| 20260503071528 | 1 | 300 | 0.0 | 0.0 | 0.00 | 0.00 | 0.00 | 97 | 1017.4 |
| 20260503071025 | 1 | 300 | 0.0 | 0.0 | 0.00 | 0.00 | 0.00 | 97 | 1017.6 |
| 20260503070521 | 1 | 300 | 0.0 | 0.0 | 0.00 | 0.00 | 0.00 | 97 | 1017.5 |
| 20260503054934 | 1 | 301 | 0.0 | 0.0 | 0.00 | 0.00 | 0.00 | 94 | 1017.8 |
| 20260503054430 | 2 | 301 | 0.0 | 0.0 | 0.00 | 0.00 | 0.00 | 94 | 1017.8 |
| 20260503053928 | 2 | 301 | 0.0 | 0.0 | 0.00 | 0.00 | 0.00 | 93 | 1018.0 |
| 20260503053426 | 2 | 301 | 0.0 | 0.0 | 0.00 | 0.00 | 0.00 | 93 | 1017.8 |
| 20260503052922 | 2 | 301 | 0.0 | 0.0 | 0.00 | 0.00 | 0.00 | 92 | 1017.8 |
| 20260503052420 | 2 | 301 | 0.0 | 0.0 | 0.00 | 0.00 | 0.00 | 92 | 1017.8 |
| 20260503051916 | 2 | 301 | 0.0 | 0.0 | 0.00 | 0.00 | 0.00 | 92 | 1017.8 |
| 20260503051412 | 2 | 301 | 0.0 | 0.0 | 0.00 | 0.00 | 0.00 | 91 | 1017.7 |
| 20260503050909 | 3 | 301 | 0.0 | 0.0 | 0.00 | 0.00 | 0.00 | 91 | 1018.0 |
| 20260503050405 | 3 | 301 | 0.0 | 0.0 | 0.00 | 0.00 | 0.00 | 90 | 1017.8 |
| 20260503045903 | 3 | 301 | 0.0 | 0.0 | 0.00 | 0.00 | 0.00 | 90 | 1017.9 |
| 20260503045400 | 3 | 301 | 0.0 | 0.0 | 0.00 | 0.00 | 0.00 | 89 | 1017.8 |
| 20260503044856 | 3 | 300 | 0.0 | 0.0 | 0.00 | 0.00 | 0.00 | 88 | 1017.9 |
| 20260503044354 | 3 | 300 | 0.0 | 0.0 | 0.00 | 0.00 | 0.00 | 87 | 1018.0 |
| 20260503043851 | 3 | 300 | 0.0 | 0.0 | 0.00 | 0.00 | 0.00 | 87 | 1018.0 |
| 20260503043348 | 3 | 300 | 0.0 | 0.0 | 0.00 | 0.00 | 0.00 | 88 | 1017.9 |
| 20260503042844 | 3 | 300 | 0.0 | 0.0 | 0.00 | 0.00 | 0.00 | 87 | 1017.9 |
| 20260503042341 | 3 | 300 | 0.0 | 0.0 | 0.00 | 0.00 | 0.00 | 88 | 1017.9 |
| 20260503041836 | 3 | 300 | 0.0 | 0.0 | 0.00 | 0.00 | 0.00 | 87 | 1017.9 |
| 20260503041334 | 3 | 300 | 0.0 | 0.0 | 0.00 | 0.00 | 0.00 | 87 | 1018.0 |
| 20260503040832 | 3 | 300 | 0.0 | 0.0 | 0.00 | 0.00 | 0.00 | 87 | 1018.0 |
| 20260503040329 | 3 | 300 | 0.0 | 0.0 | 0.00 | 0.00 | 0.00 | 86 | 1018.1 |
| 20260503035826 | 4 | 300 | 0.0 | 0.0 | 0.00 | 0.00 | 0.00 | 86 | 1018.3 |
| 20260503035323 | 4 | 300 | 0.0 | 0.0 | 0.00 | 0.00 | 0.00 | 86 | 1017.9 |
| 20260503034820 | 4 | 301 | 0.0 | 0.0 | 0.00 | 0.00 | 0.00 | 86 | 1018.0 |
| 20260503034317 | 4 | 300 | 0.0 | 0.0 | 0.00 | 0.00 | 0.00 | 85 | 1018.0 |
| 20260503033814 | 4 | 321 | 0.0 | 0.0 | 0.00 | 0.00 | 0.00 | 86 | 1018.2 |
| 20260503033312 | 4 | 321 | 0.0 | 0.0 | 0.00 | 0.00 | 0.00 | 86 | 1018.1 |
| 20260503032810 | 4 | 321 | 0.0 | 0.0 | 0.00 | 0.00 | 0.00 | 86 | 1018.1 |
| 20260503032309 | 4 | 321 | 0.0 | 0.0 | 0.00 | 0.00 | 0.00 | 85 | 1018.1 |
| 20260503031805 | 4 | 321 | 0.0 | 0.0 | 0.00 | 0.00 | 0.00 | 85 | 1018.2 |
| 20260503031303 | 4 | 321 | 0.0 | 0.0 | 0.00 | 0.00 | 0.00 | 85 | 1018.1 |
| 20260503030759 | 4 | 321 | 0.0 | 0.0 | 0.00 | 0.00 | 0.00 | 84 | 1018.4 |
| 20260503030256 | 4 | 321 | 0.0 | 0.0 | 0.00 | 0.00 | 0.00 | 84 | 1018.2 |
| 20260503025752 | 4 | 324 | 0.0 | 0.0 | 0.00 | 0.00 | 0.00 | 84 | 1018.3 |
| 20260503025250 | 4 | 324 | 0.0 | 0.0 | 0.00 | 0.00 | 0.00 | 84 | 1018.3 |
| 20260503024747 | 4 | 324 | 0.0 | 0.0 | 0.00 | 0.00 | 0.00 | 84 | 1018.3 |
| 20260503024244 | 4 | 324 | 0.0 | 0.0 | 0.00 | 0.00 | 0.00 | 84 | 1018.3 |
| 20260503023741 | 4 | 324 | 0.0 | 0.0 | 0.00 | 0.00 | 0.00 | 84 | 1018.2 |
| 20260503023238 | 4 | 324 | 0.0 | 0.0 | 0.00 | 0.00 | 0.00 | 83 | 1018.4 |
| 20260503022734 | 4 | 324 | 0.0 | 0.0 | 0.00 | 0.00 | 0.00 | 83 | 1018.5 |
| 20260503022234 | 4 | 324 | 0.0 | 0.0 | 0.00 | 0.00 | 0.00 | 83 | 1018.5 |
| 20260503021731 | 4 | 324 | 0.0 | 0.0 | 0.00 | 0.00 | 0.00 | 83 | 1018.5 |
| 20260503021227 | 4 | 324 | 0.0 | 0.0 | 0.00 | 0.00 | 0.00 | 84 | 1018.6 |
| 20260503020725 | 4 | 324 | 0.0 | 0.0 | 0.00 | 0.00 | 0.00 | 82 | 1018.5 |
| 20260503020222 | 4 | 324 | 0.0 | 0.0 | 0.00 | 0.00 | 0.00 | 83 | 1018.5 |
| 20260503015718 | 4 | 324 | 0.0 | 0.0 | 0.00 | 0.00 | 0.00 | 82 | 1018.5 |
| 20260503015215 | 4 | 324 | 0.0 | 0.0 | 0.00 | 0.00 | 0.00 | 83 | 1018.5 |
| 20260503014711 | 4 | 324 | 0.0 | 0.0 | 0.00 | 0.00 | 0.00 | 82 | 1018.2 |
| 20260503014209 | 4 | 324 | 0.0 | 0.0 | 0.00 | 0.00 | 0.00 | 80 | 1018.3 |
| 20260503013706 | 4 | 324 | 0.0 | 0.0 | 0.00 | 0.00 | 0.00 | 81 | 1018.2 |
| 20260503013204 | 4 | 324 | 0.0 | 0.0 | 0.00 | 0.00 | 0.00 | 83 | 1018.4 |
| 20260503012701 | 4 | 324 | 0.0 | 0.0 | 0.00 | 0.00 | 0.00 | 84 | 1018.4 |
| 20260503012158 | 4 | 324 | 0.0 | 0.0 | 0.00 | 0.00 | 0.00 | 83 | 1018.5 |
| 20260503011654 | 4 | 324 | 0.0 | 0.0 | 0.00 | 0.00 | 0.00 | 82 | 1018.3 |
| 20260503011151 | 4 | 324 | 0.0 | 0.0 | 0.00 | 0.00 | 0.00 | 81 | 1018.3 |
| 20260503010647 | 4 | 324 | 0.0 | 0.0 | 0.00 | 0.00 | 0.00 | 82 | 1018.2 |
| 20260503010145 | 4 | 324 | 0.0 | 0.0 | 0.00 | 0.00 | 0.00 | 83 | 1018.3 |
| 20260503005642 | 4 | 324 | 0.0 | 0.0 | 0.00 | 0.00 | 0.00 | 82 | 1018.2 |
| 20260503005139 | 4 | 324 | 0.0 | 0.0 | 0.00 | 0.00 | 0.00 | 81 | 1018.2 |
| 20260503004635 | 5 | 324 | 0.0 | 0.0 | 0.00 | 0.00 | 0.00 | 80 | 1018.2 |
| 20260503004134 | 4 | 324 | 0.0 | 0.0 | 0.00 | 0.00 | 0.00 | 77 | 1018.3 |
| 20260503003631 | 5 | 324 | 0.0 | 0.0 | 0.00 | 0.00 | 0.00 | 79 | 1018.2 |
| 20260503003127 | 5 | 324 | 0.0 | 0.0 | 0.00 | 0.00 | 0.00 | 79 | 1018.4 |
| 20260503002625 | 5 | 324 | 0.0 | 0.0 | 0.00 | 0.00 | 0.00 | 77 | 1018.3 |
| 20260503002121 | 5 | 324 | 0.0 | 0.0 | 0.00 | 0.00 | 0.00 | 77 | 1018.2 |